When you browse on this site, cookies collect data to enhance your experience and personalize the content and advertising you see.
Visit our Privacy Policy to learn more. By continuing to use the site, you agree to this use of cookies and data.
  • Em Portugal
  • Lista de países
  • Para 7 dias
  • Temperatura da água
  • Mapas de satélite
  • Mapa do tempo
  • Widgets de tempo
  • user-avatar
    Iniciar Sessão

    Previsão horária em Eisenstadt

    Hoje, 24 Março, Domingo

    Tempo Temperatura Precipitação Vento Pressão Humidade
    00:00 +10°C° 0 mm 1 m/s 728 mmHg 73%
    01:00 +10°C° 0 mm 1 m/s 728 mmHg 71%
    02:00 +10°C° 0 mm 1 m/s 728 mmHg 71%
    03:00 +10°C° 0 mm 1 m/s 727 mmHg 71%
    04:00 +9°C° 0 mm 1 m/s 727 mmHg 71%
    05:00 +10°C° 0 mm 1 m/s 727 mmHg 70%
    06:00 +10°C° 0 mm 1 m/s 727 mmHg 70%
    07:00 +10°C° 0 mm 1 m/s 727 mmHg 65%
    08:00 +12°C° 0 mm 1 m/s 727 mmHg 60%
    09:00 +14°C° 0 mm 1 m/s 727 mmHg 54%
    10:00 +16°C° 0 mm 1 m/s 727 mmHg 49%
    11:00 +18°C° 0 mm 1 m/s 726 mmHg 47%
    12:00 +19°C° 0 mm 1 m/s 726 mmHg 46%
    13:00 +19°C° 0 mm 2 m/s 725 mmHg 43%
    14:00 +20°C° 0 mm 1 m/s 725 mmHg 43%
    15:00 +20°C° 0 mm 1 m/s 724 mmHg 44%
    16:00 +20°C° 0 mm 1 m/s 723 mmHg 44%
    17:00 +18°C° 0 mm 1 m/s 723 mmHg 50%
    18:00 +15°C° 0 mm 1 m/s 723 mmHg 57%
    19:00 +14°C° 0 mm 1 m/s 723 mmHg 63%
    20:00 +13°C° 0 mm 1 m/s 723 mmHg 67%
    21:00 +12°C° 0 mm 1 m/s 723 mmHg 70%
    22:00 +12°C° 0 mm 2 m/s 723 mmHg 74%
    23:00 +10°C° 0 mm 2 m/s 722 mmHg 74%

    Amanhã, 25 Março, Segunda-feira

    Tempo Temperatura Precipitação Vento Pressão Humidade
    00:00 +9°C° 0 mm 2 m/s 722 mmHg 74%
    01:00 +9°C° 0 mm 2 m/s 722 mmHg 74%
    02:00 +8°C° 0 mm 2 m/s 722 mmHg 77%
    03:00 +8°C° 0 mm 2 m/s 722 mmHg 80%
    04:00 +8°C° 0 mm 2 m/s 721 mmHg 82%
    05:00 +8°C° 0 mm 2 m/s 721 mmHg 79%
    06:00 +8°C° 0 mm 3 m/s 721 mmHg 76%
    07:00 +8°C° 0 mm 3 m/s 721 mmHg 73%
    08:00 +8°C° 0 mm 4 m/s 721 mmHg 65%
    09:00 +10°C° 0 mm 5 m/s 721 mmHg 57%
    10:00 +11°C° 0 mm 6 m/s 721 mmHg 49%
    11:00 +11°C° 0 mm 6 m/s 721 mmHg 46%
    12:00 +11°C° 0 mm 6 m/s 721 mmHg 44%
    13:00 +11°C° 0 mm 7 m/s 721 mmHg 41%
    14:00 +10°C° 0.1 mm 7 m/s 721 mmHg 42%
    15:00 +9°C° 0.1 mm 6 m/s 721 mmHg 42%
    16:00 +9°C° 0.1 mm 6 m/s 720 mmHg 43%
    17:00 +7°C° 0.1 mm 5 m/s 721 mmHg 48%
    18:00 +6°C° 0.1 mm 4 m/s 721 mmHg 53%
    19:00 +5°C° 0.1 mm 3 m/s 722 mmHg 58%
    20:00 +5°C° 0 mm 3 m/s 722 mmHg 58%
    21:00 +4°C° 0 mm 4 m/s 723 mmHg 59%
    22:00 +4°C° 0 mm 4 m/s 724 mmHg 59%
    23:00 +3°C° 0 mm 4 m/s 724 mmHg 60%

    Depois de amanhã, 26 Março, Terça-feira

    Tempo Temperatura Precipitação Vento Pressão Humidade
    00:00 +2°C° 0 mm 5 m/s 725 mmHg 62%
    01:00 +2°C° 0 mm 5 m/s 725 mmHg 64%
    02:00 +1°C° 0 mm 5 m/s 725 mmHg 65%
    03:00 +1°C° 0 mm 5 m/s 726 mmHg 66%
    04:00 +1°C° 0 mm 5 m/s 726 mmHg 68%
    05:00 +1°C° 0 mm 5 m/s 726 mmHg 67%
    06:00 +1°C° 0 mm 5 m/s 726 mmHg 67%
    07:00 +1°C° 0 mm 5 m/s 727 mmHg 66%
    08:00 +2°C° 0 mm 6 m/s 727 mmHg 61%
    09:00 +3°C° 0 mm 6 m/s 727 mmHg 57%
    10:00 +4°C° 0 mm 7 m/s 728 mmHg 52%
    11:00 +5°C° 0 mm 7 m/s 728 mmHg 49%
    12:00 +6°C° 0 mm 7 m/s 727 mmHg 45%
    13:00 +8°C° 0 mm 6 m/s 727 mmHg 41%
    14:00 +8°C° 0 mm 6 m/s 727 mmHg 42%
    15:00 +8°C° 0 mm 6 m/s 727 mmHg 42%
    16:00 +8°C° 0 mm 5 m/s 727 mmHg 42%
    17:00 +7°C° 0 mm 4 m/s 727 mmHg 49%
    18:00 +5°C° 0 mm 3 m/s 727 mmHg 55%
    19:00 +5°C° 0 mm 2 m/s 728 mmHg 62%
    20:00 +4°C° 0 mm 2 m/s 728 mmHg 65%
    21:00 +4°C° 0 mm 2 m/s 729 mmHg 69%
    22:00 +3°C° 0 mm 3 m/s 729 mmHg 72%
    23:00 +2°C° 0 mm 3 m/s 729 mmHg 73%

    27 Março, Quarta-feira

    Tempo Temperatura Precipitação Vento Pressão Humidade
    00:00 +2°C° 0 mm 3 m/s 729 mmHg 75%
    01:00 +2°C° 0 mm 3 m/s 730 mmHg 76%
    02:00 +1°C° 0 mm 3 m/s 729 mmHg 75%
    03:00 +1°C° 0 mm 3 m/s 729 mmHg 74%
    04:00 +1°C° 0 mm 3 m/s 729 mmHg 74%
    05:00 +1°C° 0 mm 3 m/s 730 mmHg 71%
    06:00 +1°C° 0 mm 3 m/s 730 mmHg 68%
    07:00 +1°C° 0 mm 4 m/s 730 mmHg 65%
    08:00 +3°C° 0 mm 4 m/s 730 mmHg 62%
    09:00 +4°C° 0 mm 4 m/s 731 mmHg 58%
    10:00 +5°C° 0 mm 5 m/s 731 mmHg 54%
    11:00 +6°C° 0 mm 5 m/s 731 mmHg 53%
    12:00 +6°C° 0 mm 5 m/s 731 mmHg 51%
    13:00 +7°C° 0 mm 5 m/s 731 mmHg 49%
    14:00 +7°C° 0 mm 5 m/s 731 mmHg 49%
    15:00 +7°C° 0 mm 5 m/s 731 mmHg 49%
    16:00 +7°C° 0 mm 5 m/s 730 mmHg 49%
    17:00 +6°C° 0 mm 4 m/s 731 mmHg 55%
    18:00 +5°C° 0 mm 3 m/s 731 mmHg 61%
    19:00 +3°C° 0 mm 3 m/s 731 mmHg 67%
    20:00 +4°C° 0 mm 2 m/s 731 mmHg 69%
    21:00 +4°C° 0 mm 2 m/s 732 mmHg 71%
    22:00 +3°C° 0 mm 2 m/s 732 mmHg 73%
    23:00 +3°C° 0 mm 2 m/s 732 mmHg 73%

    28 Março, Quinta-feira

    Tempo Temperatura Precipitação Vento Pressão Humidade
    00:00 +3°C° 0 mm 2 m/s 732 mmHg 74%
    01:00 +3°C° 0 mm 2 m/s 733 mmHg 74%
    02:00 +3°C° 0 mm 2 m/s 732 mmHg 74%
    03:00 +2°C° 0 mm 2 m/s 732 mmHg 75%
    04:00 +2°C° 0 mm 2 m/s 732 mmHg 75%
    05:00 +3°C° 0 mm 2 m/s 732 mmHg 74%
    06:00 +3°C° 0 mm 2 m/s 733 mmHg 73%
    07:00 +4°C° 0 mm 2 m/s 733 mmHg 72%
    08:00 +5°C° 0 mm 2 m/s 733 mmHg 66%
    09:00 +7°C° 0 mm 2 m/s 733 mmHg 61%
    10:00 +9°C° 0 mm 3 m/s 733 mmHg 56%
    11:00 +9°C° 0 mm 3 m/s 733 mmHg 54%
    12:00 +10°C° 0 mm 3 m/s 733 mmHg 52%
    13:00 +10°C° 0 mm 2 m/s 733 mmHg 50%
    14:00 +10°C° 0 mm 2 m/s 732 mmHg 51%
    15:00 +10°C° 0 mm 2 m/s 732 mmHg 51%
    16:00 +10°C° 0 mm 2 m/s 732 mmHg 52%
    17:00 +9°C° 0 mm 2 m/s 732 mmHg 57%
    18:00 +9°C° 0 mm 1 m/s 732 mmHg 63%
    19:00 +7°C° 0 mm 1 m/s 732 mmHg 68%
    20:00 +7°C° 0 mm 1 m/s 732 mmHg 70%
    21:00 +7°C° 0 mm 1 m/s 733 mmHg 71%
    22:00 +6°C° 0 mm 1 m/s 733 mmHg 72%
    23:00 +6°C° 0 mm 1 m/s 733 mmHg 73%

    29 Março, Sexta-feira

    Tempo Temperatura Precipitação Vento Pressão Humidade
    00:00 +5°C° 0 mm 1 m/s 733 mmHg 74%
    01:00 +5°C° 0 mm 1 m/s 733 mmHg 76%
    02:00 +5°C° 0 mm 1 m/s 733 mmHg 76%
    03:00 +4°C° 0 mm 1 m/s 733 mmHg 76%
    04:00 +4°C° 0 mm 1 m/s 733 mmHg 77%
    05:00 +5°C° 0 mm 1 m/s 733 mmHg 75%
    06:00 +5°C° 0 mm 1 m/s 733 mmHg 73%
    07:00 +6°C° 0 mm 1 m/s 733 mmHg 71%
    08:00 +8°C° 0 mm 1 m/s 733 mmHg 64%
    09:00 +9°C° 0 mm 1 m/s 734 mmHg 56%
    10:00 +11°C° 0 mm 1 m/s 734 mmHg 49%
    11:00 +12°C° 0 mm 2 m/s 733 mmHg 46%
    12:00 +13°C° 0 mm 2 m/s 733 mmHg 44%
    13:00 +13°C° 0 mm 2 m/s 733 mmHg 41%
    14:00 +13°C° 0 mm 2 m/s 732 mmHg 42%
    15:00 +13°C° 0 mm 2 m/s 732 mmHg 43%
    16:00 +13°C° 0 mm 2 m/s 731 mmHg 43%
    17:00 +11°C° 0 mm 1 m/s 731 mmHg 49%
    18:00 +10°C° 0 mm 1 m/s 731 mmHg 55%
    19:00 +8°C° 0 mm 1 m/s 731 mmHg 62%
    20:00 +8°C° 0 mm 1 m/s 731 mmHg 63%
    21:00 +7°C° 0 mm 1 m/s 731 mmHg 65%
    22:00 +7°C° 0 mm 1 m/s 732 mmHg 66%
    23:00 +6°C° 0 mm 1 m/s 731 mmHg 67%
    Mostrar mais